Location: Newark
(52.3500°N, 175.9667°E)
Time: 06:13:26
(UTC+00:00)

S-56A Canister/Altair - Pass Details

Date: 23 April 2021
Orbit: 631 x 2501 km, 38.9° (Epoch: 12 May)

Event Time Altitude Azimuth Distance (km) Brightness Sun altitude
Rises 10:03:45 0° 218° (SW) 5,072 11.5 -19.1°
Reaches altitude 10° 10:08:37 10° 203° (SSW) 3,698 10.7 -19.5°
Enters shadow 10:10:42 14° 193° (SSW) 3,188 10.3 -19.7°
Maximum altitude 10:14:27 19° 163° (SSE) 2,582 - -20.0°
Drops below altitude 10° 10:19:03 10° 120° (ESE) 2,816 - -20.4°
Sets 10:22:06 0° 102° (ESE) 3,517 - -20.6°
